Location: Unspecified
(0.0000°N, 0.0000°E)
Time: 08:06:17
(UTC+00:00)

Vanguard 2 - Pass Details

Date: 10 December 2017
Orbit: 553 x 2939 km, 32.9° (Epoch: 20 July)

Event Time Altitude Azimuth Distance (km) Brightness Sun altitude
Rises 02:40:45 0° 276° (W) 4,320 - -43.2°
Reaches altitude 10° 02:43:37 10° 266° (W) 3,647 - -42.6°
Exits shadow 02:51:09 34° 215° (SW) 2,891 10.2 -41.0°
Maximum altitude 02:52:27 35° 204° (SSW) 2,959 10.4 -40.7°
Drops below altitude 10° 03:05:37 10° 145° (SE) 5,400 12.4 -37.9°
Sets 03:11:04 0° 137° (SE) 6,641 13.2 -36.7°
